Time,TemperatureF,DewpointF,PressureIn,WindDirection,WindDirectionDegrees,WindSpeedMPH,WindSpeedGustMPH,Humidity,HourlyPrecipIn,Conditions,Clouds,dailyrainin,SoftwareType,DateUTC
2013-06-24 00:00:00,76.8,65.9,30.00,SE,135,0.0,0.0,69,0.00,,,-99.99,open2300 version1.11,2013-06-24 04:00:00,
2013-06-24 00:05:00,76.6,65.8,30.00,SE,135,0.0,0.0,69,0.00,,,-99.99,open2300 version1.11,2013-06-24 04:05:00,
2013-06-24 00:10:00,76.5,65.6,30.00,SE,135,0.0,0.0,69,0.00,,,-99.99,open2300 version1.11,2013-06-24 04:10:00,
2013-06-24 00:15:00,76.3,65.4,30.00,SE,135,0.0,0.0,69,0.00,,,-99.99,open2300 version1.11,2013-06-24 04:15:00,
2013-06-24 00:20:00,75.9,65.5,30.00,SE,135,0.0,0.0,70,0.00,,,-99.99,open2300 version1.11,2013-06-24 04:20:00,
2013-06-24 00:25:00,75.6,65.1,30.00,SE,135,0.0,0.0,70,0.00,,,-99.99,open2300 version1.11,2013-06-24 04:25:00,
2013-06-24 00:35:00,75.0,65.0,30.02,SE,135,0.0,0.0,71,0.00,,,-99.99,open2300 version1.11,2013-06-24 04:35:00,
2013-06-24 00:40:00,74.8,64.8,30.01,SE,135,0.0,0.0,71,0.00,,,-99.99,open2300 version1.11,2013-06-24 04:40:00,
2013-06-24 00:45:00,74.5,64.5,30.01,SE,135,0.0,0.0,71,0.00,,,-99.99,open2300 version1.11,2013-06-24 04:45:00,
2013-06-24 00:50:00,74.3,64.7,30.01,SE,135,0.0,0.0,72,0.00,,,-99.99,open2300 version1.11,2013-06-24 04:50:00,
2013-06-24 00:55:00,74.1,64.5,30.00,SE,135,0.0,0.0,72,0.00,,,-99.99,open2300 version1.11,2013-06-24 04:55:00,
2013-06-24 01:05:00,73.6,64.4,30.01,SE,135,0.0,0.0,73,0.00,,,-99.99,open2300 version1.11,2013-06-24 05:05:00,
2013-06-24 01:15:00,73.2,64.5,30.02,SE,135,0.0,0.0,74,0.00,,,-99.99,open2300 version1.11,2013-06-24 05:15:00,
2013-06-24 01:25:00,72.7,63.9,30.02,SE,135,0.0,0.0,74,0.00,,,-99.99,open2300 version1.11,2013-06-24 05:25:00,
2013-06-24 01:35:00,72.3,64.0,30.03,SE,135,0.0,0.0,75,0.00,,,-99.99,open2300 version1.11,2013-06-24 05:35:00,
2013-06-24 01:45:00,72.0,64.0,30.03,SE,135,0.0,0.0,76,0.00,,,-99.99,open2300 version1.11,2013-06-24 05:45:00,
2013-06-24 01:50:00,71.8,63.8,30.03,SE,135,0.0,0.0,76,0.00,,,-99.99,open2300 version1.11,2013-06-24 05:50:00,
2013-06-24 01:55:00,71.8,63.8,30.03,SE,135,0.0,0.0,76,0.00,,,-99.99,open2300 version1.11,2013-06-24 05:55:00,
2013-06-24 02:00:00,71.6,63.6,30.03,SE,135,0.0,0.0,76,0.00,,,-99.99,open2300 version1.11,2013-06-24 06:00:00,
2013-06-24 02:05:00,71.4,63.8,30.03,SE,135,0.0,0.0,77,0.00,,,-99.99,open2300 version1.11,2013-06-24 06:05:00,
2013-06-24 02:11:00,71.4,63.8,30.03,SE,135,0.0,0.0,77,0.00,,,-99.99,open2300 version1.11,2013-06-24 06:11:00,
2013-06-24 02:20:00,71.4,64.2,30.04,SE,135,0.0,0.0,78,0.00,,,-99.99,open2300 version1.11,2013-06-24 06:20:00,
2013-06-24 02:25:00,71.4,64.2,30.04,South,180,0.0,0.0,78,0.00,,,-99.99,open2300 version1.11,2013-06-24 06:25:00,
2013-06-24 02:30:00,71.4,64.2,30.04,South,180,0.0,0.0,78,0.00,,,-99.99,open2300 version1.11,2013-06-24 06:30:00,
2013-06-24 02:36:00,71.4,64.2,30.04,South,180,0.0,0.0,78,0.00,,,-99.99,open2300 version1.11,2013-06-24 06:36:00,
2013-06-24 02:45:00,71.8,64.2,30.04,South,180,0.0,0.0,77,0.00,,,-99.99,open2300 version1.11,2013-06-24 06:45:00,
2013-06-24 02:50:00,71.8,64.2,30.04,South,180,0.0,0.0,77,0.00,,,-99.99,open2300 version1.11,2013-06-24 06:50:00,
2013-06-24 02:55:00,72.0,64.3,30.05,South,180,0.0,0.0,77,0.00,,,-99.99,open2300 version1.11,2013-06-24 06:55:00,
2013-06-24 03:00:00,72.1,64.5,30.05,South,180,0.0,0.0,77,0.00,,,-99.99,open2300 version1.11,2013-06-24 07:00:00,
2013-06-24 03:05:00,72.1,64.5,30.05,South,180,0.0,0.0,77,0.00,,,-99.99,open2300 version1.11,2013-06-24 07:05:00,
2013-06-24 03:10:00,72.1,64.5,30.05,South,180,0.0,0.0,77,0.00,,,-99.99,open2300 version1.11,2013-06-24 07:10:00,
2013-06-24 03:15:00,72.1,64.5,30.05,South,180,0.0,0.0,77,0.00,,,-99.99,open2300 version1.11,2013-06-24 07:15:00,
2013-06-24 03:20:00,72.0,64.3,30.05,South,180,0.0,0.0,77,0.00,,,-99.99,open2300 version1.11,2013-06-24 07:20:00,
2013-06-24 03:25:00,72.0,64.3,30.05,South,180,0.0,0.0,77,0.00,,,-99.99,open2300 version1.11,2013-06-24 07:25:00,
2013-06-24 03:30:00,71.8,64.2,30.05,South,180,0.0,0.0,77,0.00,,,-99.99,open2300 version1.11,2013-06-24 07:30:00,
2013-06-24 03:35:00,71.8,64.2,30.05,South,180,0.0,0.0,77,0.00,,,-99.99,open2300 version1.11,2013-06-24 07:35:00,
2013-06-24 03:45:00,71.4,64.2,30.05,South,180,0.0,0.0,78,0.00,,,-99.99,open2300 version1.11,2013-06-24 07:45:00,
2013-06-24 03:55:00,71.4,64.2,30.04,South,180,0.0,0.0,78,0.00,,,-99.99,open2300 version1.11,2013-06-24 07:55:00,
2013-06-24 04:00:00,71.4,64.2,30.04,South,180,0.0,0.0,78,0.00,,,-99.99,open2300 version1.11,2013-06-24 08:00:00,
2013-06-24 04:06:00,71.4,64.2,30.04,South,180,0.0,0.0,78,0.00,,,-99.99,open2300 version1.11,2013-06-24 08:06:00,
2013-06-24 04:15:00,71.4,64.2,30.04,South,180,0.0,0.0,78,0.00,,,-99.99,open2300 version1.11,2013-06-24 08:15:00,
2013-06-24 04:20:00,71.4,64.2,30.04,South,180,0.0,0.0,78,0.00,,,-99.99,open2300 version1.11,2013-06-24 08:20:00,
2013-06-24 04:25:00,71.4,64.2,30.05,South,180,0.0,0.0,78,0.00,,,-99.99,open2300 version1.11,2013-06-24 08:25:00,
2013-06-24 04:30:00,71.2,64.0,30.05,South,180,0.0,0.0,78,0.00,,,-99.99,open2300 version1.11,2013-06-24 08:30:00,
2013-06-24 04:35:00,71.2,64.0,30.05,South,180,0.0,0.0,78,0.00,,,-99.99,open2300 version1.11,2013-06-24 08:35:00,
2013-06-24 04:45:00,70.9,63.6,30.04,South,180,0.0,0.0,78,0.00,,,-99.99,open2300 version1.11,2013-06-24 08:45:00,
2013-06-24 04:56:00,70.5,63.3,30.04,South,180,0.0,0.0,78,0.00,,,-99.99,open2300 version1.11,2013-06-24 08:56:00,
2013-06-24 05:07:00,70.2,63.3,30.04,South,180,0.0,0.0,79,0.00,,,-99.99,open2300 version1.11,2013-06-24 09:07:00,
2013-06-24 05:12:00,70.0,63.1,30.04,South,180,0.0,0.0,79,0.00,,,-99.99,open2300 version1.11,2013-06-24 09:12:00,
2013-06-24 05:20:00,69.8,62.9,30.03,South,180,0.0,0.0,79,0.00,,,-99.99,open2300 version1.11,2013-06-24 09:20:00,
2013-06-24 05:25:00,69.6,63.2,30.03,South,180,0.0,0.0,80,0.00,,,-99.99,open2300 version1.11,2013-06-24 09:25:00,
2013-06-24 05:31:00,69.6,63.2,30.03,South,180,0.0,0.0,80,0.00,,,-99.99,open2300 version1.11,2013-06-24 09:31:00,
2013-06-24 05:40:00,69.3,62.8,30.03,South,180,0.0,0.0,80,0.00,,,-99.99,open2300 version1.11,2013-06-24 09:40:00,
2013-06-24 05:45:00,69.3,62.8,30.03,South,180,0.0,0.0,80,0.00,,,-99.99,open2300 version1.11,2013-06-24 09:45:00,
2013-06-24 05:50:00,69.1,62.7,30.03,South,180,0.0,0.0,80,0.00,,,-99.99,open2300 version1.11,2013-06-24 09:50:00,
2013-06-24 06:00:00,69.1,63.0,30.03,South,180,0.0,0.0,81,0.00,,,-99.99,open2300 version1.11,2013-06-24 10:00:00,
2013-06-24 06:05:00,68.9,62.8,30.03,South,180,0.0,0.0,81,0.00,,,-99.99,open2300 version1.11,2013-06-24 10:05:00,
2013-06-24 06:11:00,68.9,62.8,30.04,South,180,0.0,0.0,81,0.00,,,-99.99,open2300 version1.11,2013-06-24 10:11:00,
2013-06-24 06:20:00,68.7,62.7,30.04,South,180,0.0,0.0,81,0.00,,,-99.99,open2300 version1.11,2013-06-24 10:20:00,
2013-06-24 06:25:00,68.7,62.7,30.04,South,180,0.0,0.0,81,0.00,,,-99.99,open2300 version1.11,2013-06-24 10:25:00,
2013-06-24 06:30:00,68.5,62.5,30.04,South,180,0.0,0.0,81,0.00,,,-99.99,open2300 version1.11,2013-06-24 10:30:00,
2013-06-24 06:40:00,68.5,62.8,30.04,South,180,0.0,0.0,82,0.00,,,-99.99,open2300 version1.11,2013-06-24 10:40:00,
2013-06-24 06:50:00,68.7,63.0,30.04,South,180,0.0,0.0,82,0.00,,,-99.99,open2300 version1.11,2013-06-24 10:50:00,
2013-06-24 06:55:00,69.1,63.3,30.04,South,180,0.0,0.0,82,0.00,,,-99.99,open2300 version1.11,2013-06-24 10:55:00,
2013-06-24 07:01:00,69.4,63.7,30.04,South,180,0.0,0.0,82,0.00,,,-99.99,open2300 version1.11,2013-06-24 11:01:00,
2013-06-24 07:10:00,70.3,64.5,30.05,South,180,0.0,0.0,82,0.00,,,-99.99,open2300 version1.11,2013-06-24 11:10:00,
2013-06-24 07:15:00,70.9,64.7,30.05,SE,135,0.0,0.0,81,0.00,,,-99.99,open2300 version1.11,2013-06-24 11:15:00,
2013-06-24 07:20:00,71.4,65.3,30.05,SE,135,0.0,0.0,81,0.00,,,-99.99,open2300 version1.11,2013-06-24 11:20:00,
2013-06-24 07:25:00,71.8,65.3,30.05,SE,135,0.0,0.0,80,0.00,,,-99.99,open2300 version1.11,2013-06-24 11:25:00,
2013-06-24 07:30:00,72.3,65.5,30.05,SE,135,0.0,0.0,79,0.00,,,-99.99,open2300 version1.11,2013-06-24 11:30:00,
2013-06-24 07:36:00,72.9,66.0,30.06,SE,135,0.0,0.0,79,0.00,,,-99.99,open2300 version1.11,2013-06-24 11:36:00,
2013-06-24 07:46:00,73.9,66.7,30.06,SE,135,0.0,0.0,78,0.00,,,-99.99,open2300 version1.11,2013-06-24 11:46:00,
2013-06-24 07:55:00,74.8,66.8,30.06,SE,135,0.0,0.0,76,0.00,,,-99.99,open2300 version1.11,2013-06-24 11:55:00,
2013-06-24 08:00:00,75.0,66.6,30.06,SE,135,0.0,0.0,75,0.00,,,-99.99,open2300 version1.11,2013-06-24 12:00:00,
2013-06-24 08:05:00,75.4,67.3,30.06,SE,135,0.0,0.0,76,0.00,,,-99.99,open2300 version1.11,2013-06-24 12:05:00,
2013-06-24 08:10:00,75.6,67.1,30.06,SE,135,0.0,0.0,75,0.00,,,-99.99,open2300 version1.11,2013-06-24 12:10:00,
2013-06-24 08:16:00,75.7,67.2,30.06,SE,135,0.0,0.0,75,0.00,,,-99.99,open2300 version1.11,2013-06-24 12:16:00,
2013-06-24 08:25:00,75.9,67.4,30.06,ESE,112,0.0,0.0,75,0.00,,,-99.99,open2300 version1.11,2013-06-24 12:25:00,
2013-06-24 08:30:00,76.3,67.8,30.06,SE,135,0.0,0.0,75,0.00,,,-99.99,open2300 version1.11,2013-06-24 12:30:00,
2013-06-24 08:36:00,76.6,67.7,30.06,SE,135,0.0,0.0,74,0.00,,,-99.99,open2300 version1.11,2013-06-24 12:36:00,
2013-06-24 08:47:00,77.0,68.1,30.06,SSE,157,0.0,0.0,74,0.00,,,-99.99,open2300 version1.11,2013-06-24 12:47:00,
2013-06-24 08:55:00,77.2,68.2,30.06,WSW,247,0.0,0.0,74,0.00,,,-99.99,open2300 version1.11,2013-06-24 12:55:00,
2013-06-24 09:00:00,77.2,68.2,30.06,West,270,0.0,0.0,74,0.00,,,-99.99,open2300 version1.11,2013-06-24 13:00:00,
2013-06-24 09:10:00,77.2,68.2,30.06,SE,135,0.0,0.0,74,0.00,,,-99.99,open2300 version1.11,2013-06-24 13:10:00,
2013-06-24 09:15:00,77.2,68.2,30.07,SW,225,0.0,0.0,74,0.00,,,-99.99,open2300 version1.11,2013-06-24 13:15:00,
2013-06-24 09:21:00,77.2,68.2,30.07,SW,225,0.0,0.0,74,0.00,,,-99.99,open2300 version1.11,2013-06-24 13:21:00,
2013-06-24 09:30:00,77.5,68.6,30.06,SSE,157,0.0,0.0,74,0.00,,,-99.99,open2300 version1.11,2013-06-24 13:30:00,
2013-06-24 09:35:00,77.5,68.6,30.06,WSW,247,0.0,0.0,74,0.00,,,-99.99,open2300 version1.11,2013-06-24 13:35:00,
2013-06-24 09:41:00,77.7,68.7,30.06,WSW,247,0.0,0.0,74,0.00,,,-99.99,open2300 version1.11,2013-06-24 13:41:00,
2013-06-24 09:51:00,77.9,68.9,30.06,SE,135,0.0,0.0,74,0.00,,,-99.99,open2300 version1.11,2013-06-24 13:51:00,
2013-06-24 10:00:00,77.7,68.7,30.06,WSW,247,0.0,0.0,74,0.00,,,-99.99,open2300 version1.11,2013-06-24 14:00:00,
2013-06-24 10:10:00,78.1,69.1,30.06,SW,225,0.0,0.0,74,0.00,,,-99.99,open2300 version1.11,2013-06-24 14:10:00,
2013-06-24 10:20:00,78.4,69.4,30.06,WSW,247,0.0,0.0,74,0.00,,,-99.99,open2300 version1.11,2013-06-24 14:20:00,
2013-06-24 10:31:00,78.6,69.6,30.05,SW,225,0.0,0.0,74,0.00,,,-99.99,open2300 version1.11,2013-06-24 14:31:00,
2013-06-24 10:40:00,79.2,69.7,30.06,SW,225,0.0,0.0,73,0.00,,,-99.99,open2300 version1.11,2013-06-24 14:40:00,
2013-06-24 10:45:00,79.3,69.9,30.06,SE,135,0.0,0.0,73,0.00,,,-99.99,open2300 version1.11,2013-06-24 14:45:00,
2013-06-24 10:50:00,79.5,70.1,30.05,WSW,247,0.0,0.0,73,0.00,,,-99.99,open2300 version1.11,2013-06-24 14:50:00,
2013-06-24 11:05:00,79.7,69.9,30.05,SW,225,0.0,0.0,72,0.00,,,-99.99,open2300 version1.11,2013-06-24 15:05:00,
2013-06-24 11:17:00,80.4,70.6,30.05,WSW,247,0.0,0.0,72,0.00,,,-99.99,open2300 version1.11,2013-06-24 15:17:00,
2013-06-24 11:27:00,81.0,70.7,30.05,SW,225,0.0,0.0,71,0.00,,,-99.99,open2300 version1.11,2013-06-24 15:27:00,
2013-06-24 11:35:00,81.1,70.5,30.05,SW,225,0.0,0.0,70,0.00,,,-99.99,open2300 version1.11,2013-06-24 15:35:00,
2013-06-24 11:40:00,81.3,70.6,30.05,SW,225,0.0,0.0,70,0.00,,,-99.99,open2300 version1.11,2013-06-24 15:40:00,
2013-06-24 11:45:00,81.5,70.8,30.06,SW,225,0.0,0.0,70,0.00,,,-99.99,open2300 version1.11,2013-06-24 15:45:00,
2013-06-24 11:50:00,81.7,71.0,30.05,South,180,0.0,0.0,70,0.00,,,-99.99,open2300 version1.11,2013-06-24 15:50:00,
2013-06-24 11:55:00,81.9,71.1,30.05,SSW,202,0.0,0.0,70,0.00,,,-99.99,open2300 version1.11,2013-06-24 15:55:00,
2013-06-24 12:00:00,82.0,70.8,30.05,SW,225,0.0,0.0,69,0.00,,,-99.99,open2300 version1.11,2013-06-24 16:00:00,
2013-06-24 12:05:00,82.2,71.0,30.05,SW,225,0.0,0.0,69,0.00,,,-99.99,open2300 version1.11,2013-06-24 16:05:00,
2013-06-24 12:10:00,82.2,71.0,30.05,SW,225,0.0,0.0,69,0.00,,,-99.99,open2300 version1.11,2013-06-24 16:10:00,
2013-06-24 12:20:00,82.2,70.5,30.05,WSW,247,0.0,0.0,68,0.00,,,-99.99,open2300 version1.11,2013-06-24 16:20:00,
2013-06-24 12:25:00,82.2,70.5,30.05,SW,225,0.0,0.0,68,0.00,,,-99.99,open2300 version1.11,2013-06-24 16:25:00,
2013-06-24 12:31:00,82.2,70.5,30.05,SW,225,0.0,0.0,68,0.00,,,-99.99,open2300 version1.11,2013-06-24 16:31:00,
2013-06-24 12:40:00,82.2,70.5,30.06,SW,225,0.0,0.0,68,0.00,,,-99.99,open2300 version1.11,2013-06-24 16:40:00,
2013-06-24 12:46:00,82.2,70.5,30.06,SW,225,0.0,0.0,68,0.00,,,-99.99,open2300 version1.11,2013-06-24 16:46:00,
2013-06-24 12:51:00,82.6,70.9,30.05,SW,225,0.0,0.0,68,0.00,,,-99.99,open2300 version1.11,2013-06-24 16:51:00,
2013-06-24 13:00:00,82.9,70.8,30.05,SW,225,0.0,0.0,67,0.00,,,-99.99,open2300 version1.11,2013-06-24 17:00:00,
2013-06-24 13:05:00,82.9,70.8,30.04,SW,225,0.0,0.0,67,0.00,,,-99.99,open2300 version1.11,2013-06-24 17:05:00,
2013-06-24 13:10:00,82.9,70.8,30.04,SE,135,0.0,0.0,67,0.00,,,-99.99,open2300 version1.11,2013-06-24 17:10:00,
2013-06-24 13:15:00,83.3,71.6,30.04,WSW,247,0.0,0.0,68,0.00,,,-99.99,open2300 version1.11,2013-06-24 17:15:00,
2013-06-24 13:25:00,84.0,71.4,30.04,SW,225,0.0,0.0,66,0.00,,,-99.99,open2300 version1.11,2013-06-24 17:25:00,
2013-06-24 13:30:00,84.0,71.4,30.04,West,270,0.0,0.0,66,0.00,,,-99.99,open2300 version1.11,2013-06-24 17:30:00,
2013-06-24 13:35:00,84.2,71.6,30.04,WSW,247,0.0,0.0,66,0.00,,,-99.99,open2300 version1.11,2013-06-24 17:35:00,
2013-06-24 13:40:00,84.4,71.8,30.04,WSW,247,0.0,0.0,66,0.00,,,-99.99,open2300 version1.11,2013-06-24 17:40:00,
2013-06-24 13:45:00,84.6,71.9,30.03,WSW,247,0.0,0.0,66,0.00,,,-99.99,open2300 version1.11,2013-06-24 17:45:00,
2013-06-24 13:50:00,84.7,72.1,30.03,WSW,247,0.0,0.0,66,0.00,,,-99.99,open2300 version1.11,2013-06-24 17:50:00,
2013-06-24 14:00:00,85.6,72.5,30.02,SW,225,0.0,0.0,65,0.00,,,-99.99,open2300 version1.11,2013-06-24 18:00:00,
2013-06-24 14:05:00,85.8,71.7,30.02,SW,225,0.0,0.0,63,0.00,,,-99.99,open2300 version1.11,2013-06-24 18:05:00,
2013-06-24 14:10:00,85.8,71.7,30.02,SW,225,0.0,0.0,63,0.00,,,-99.99,open2300 version1.11,2013-06-24 18:10:00,
2013-06-24 14:15:00,85.6,71.6,30.02,WSW,247,0.0,0.0,63,0.00,,,-99.99,open2300 version1.11,2013-06-24 18:15:00,
2013-06-24 14:20:00,85.6,71.6,30.02,WNW,292,0.0,0.0,63,0.00,,,-99.99,open2300 version1.11,2013-06-24 18:20:00,
2013-06-24 14:30:00,85.6,71.6,30.01,WSW,247,0.0,0.0,63,0.00,,,-99.99,open2300 version1.11,2013-06-24 18:30:00,
2013-06-24 14:35:00,85.8,71.7,30.01,WSW,247,0.0,0.0,63,0.00,,,-99.99,open2300 version1.11,2013-06-24 18:35:00,
2013-06-24 14:40:00,85.8,71.3,30.01,SW,225,0.0,0.0,62,0.00,,,-99.99,open2300 version1.11,2013-06-24 18:40:00,
2013-06-24 14:45:00,86.0,71.5,30.00,SW,225,0.0,0.0,62,0.00,,,-99.99,open2300 version1.11,2013-06-24 18:45:00,
2013-06-24 14:50:00,86.2,72.1,30.00,SW,225,0.0,0.0,63,0.00,,,-99.99,open2300 version1.11,2013-06-24 18:50:00,
2013-06-24 14:55:00,86.4,71.8,30.00,SW,225,0.0,0.0,62,0.00,,,-99.99,open2300 version1.11,2013-06-24 18:55:00,
2013-06-24 15:05:00,86.5,71.5,30.00,SW,225,0.0,0.0,61,0.00,,,-99.99,open2300 version1.11,2013-06-24 19:05:00,
2013-06-24 15:10:00,86.5,71.1,30.00,SE,135,0.0,0.0,60,0.00,,,-99.99,open2300 version1.11,2013-06-24 19:10:00,
2013-06-24 15:15:00,86.7,71.7,29.99,WSW,247,0.0,0.0,61,0.00,,,-99.99,open2300 version1.11,2013-06-24 19:15:00,
2013-06-24 15:20:00,86.9,71.9,29.98,SW,225,0.0,0.0,61,0.00,,,-99.99,open2300 version1.11,2013-06-24 19:20:00,
2013-06-24 15:31:00,87.6,71.6,29.98,ESE,112,0.0,0.0,59,0.00,,,-99.99,open2300 version1.11,2013-06-24 19:31:00,
2013-06-24 15:40:00,88.0,71.4,29.98,South,180,0.0,0.0,58,0.00,,,-99.99,open2300 version1.11,2013-06-24 19:40:00,
2013-06-24 15:45:00,88.0,71.4,29.98,South,180,0.0,0.0,58,0.00,,,-99.99,open2300 version1.11,2013-06-24 19:45:00,
2013-06-24 15:50:00,88.2,72.1,29.97,South,180,0.0,0.0,59,0.00,,,-99.99,open2300 version1.11,2013-06-24 19:50:00,
2013-06-24 15:55:00,88.2,71.6,29.98,SSW,202,0.0,0.0,58,0.00,,,-99.99,open2300 version1.11,2013-06-24 19:55:00,
2013-06-24 16:00:00,88.3,71.2,29.98,SSW,202,0.0,0.0,57,0.00,,,-99.99,open2300 version1.11,2013-06-24 20:00:00,
2013-06-24 16:05:00,88.3,71.2,29.98,SSW,202,0.0,0.0,57,0.00,,,-99.99,open2300 version1.11,2013-06-24 20:05:00,
2013-06-24 16:10:00,88.3,71.2,29.97,SSW,202,0.0,0.0,57,0.00,,,-99.99,open2300 version1.11,2013-06-24 20:10:00,
2013-06-24 16:20:00,88.5,71.3,29.97,SSW,202,0.0,0.0,57,0.00,,,-99.99,open2300 version1.11,2013-06-24 20:20:00,
2013-06-24 16:30:00,88.5,71.3,29.98,South,180,0.0,0.0,57,0.00,,,-99.99,open2300 version1.11,2013-06-24 20:30:00,
2013-06-24 16:35:00,88.5,71.3,29.98,South,180,0.0,0.0,57,0.00,,,-99.99,open2300 version1.11,2013-06-24 20:35:00,
2013-06-24 16:40:00,88.5,71.3,29.97,South,180,0.0,0.0,57,0.00,,,-99.99,open2300 version1.11,2013-06-24 20:40:00,
2013-06-24 16:45:00,88.3,70.7,29.97,South,180,0.0,0.0,56,0.00,,,-99.99,open2300 version1.11,2013-06-24 20:45:00,
2013-06-24 16:50:00,88.2,70.5,29.96,SE,135,0.0,0.0,56,0.00,,,-99.99,open2300 version1.11,2013-06-24 20:50:00,
2013-06-24 16:55:00,87.8,69.6,29.96,SE,135,0.0,0.0,55,0.00,,,-99.99,open2300 version1.11,2013-06-24 20:55:00,
2013-06-24 17:00:00,87.6,69.4,29.96,WSW,247,0.0,0.0,55,0.00,,,-99.99,open2300 version1.11,2013-06-24 21:00:00,
2013-06-24 17:05:00,87.4,69.8,29.96,West,270,0.0,0.0,56,0.00,,,-99.99,open2300 version1.11,2013-06-24 21:05:00,
2013-06-24 17:10:00,87.4,69.8,29.96,SE,135,0.0,0.0,56,0.00,,,-99.99,open2300 version1.11,2013-06-24 21:10:00,
2013-06-24 17:15:00,87.1,70.0,29.95,SSE,157,0.0,0.0,57,0.00,,,-99.99,open2300 version1.11,2013-06-24 21:15:00,
2013-06-24 17:20:00,87.1,70.0,29.95,SSE,157,0.0,0.0,57,0.00,,,-99.99,open2300 version1.11,2013-06-24 21:20:00,
2013-06-24 17:25:00,86.9,70.4,29.95,SSE,157,0.0,0.0,58,0.00,,,-99.99,open2300 version1.11,2013-06-24 21:25:00,
2013-06-24 17:31:00,86.9,70.4,29.94,SSE,157,0.0,0.0,58,0.00,,,-99.99,open2300 version1.11,2013-06-24 21:31:00,
2013-06-24 17:40:00,86.7,70.2,29.94,ESE,112,0.0,0.0,58,0.00,,,-99.99,open2300 version1.11,2013-06-24 21:40:00,
2013-06-24 17:51:00,86.4,69.8,29.94,SE,135,0.0,0.0,58,0.00,,,-99.99,open2300 version1.11,2013-06-24 21:51:00,
2013-06-24 18:00:00,86.0,69.5,29.94,SSW,202,0.0,0.0,58,0.00,,,-99.99,open2300 version1.11,2013-06-24 22:00:00,
2013-06-24 18:05:00,85.8,69.3,29.94,SSW,202,0.0,0.0,58,0.00,,,-99.99,open2300 version1.11,2013-06-24 22:05:00,
2013-06-24 18:13:00,85.6,69.2,29.94,SSW,202,0.0,0.0,58,0.00,,,-99.99,open2300 version1.11,2013-06-24 22:13:00,
2013-06-24 18:20:00,85.3,68.8,29.94,SSW,202,0.0,0.0,58,0.00,,,-99.99,open2300 version1.11,2013-06-24 22:20:00,
2013-06-24 18:30:00,85.1,69.2,29.94,East,90,0.0,0.0,59,0.00,,,-99.99,open2300 version1.11,2013-06-24 22:30:00,
2013-06-24 18:35:00,84.9,69.0,29.94,SE,135,0.0,0.0,59,0.00,,,-99.99,open2300 version1.11,2013-06-24 22:35:00,
2013-06-24 18:40:00,84.9,69.0,29.95,SE,135,0.0,0.0,59,0.00,,,-99.99,open2300 version1.11,2013-06-24 22:40:00,
2013-06-24 18:45:00,84.7,68.9,29.94,SE,135,0.0,0.0,59,0.00,,,-99.99,open2300 version1.11,2013-06-24 22:45:00,
2013-06-24 18:50:00,84.7,69.4,29.94,SE,135,0.0,0.0,60,0.00,,,-99.99,open2300 version1.11,2013-06-24 22:50:00,
2013-06-24 18:55:00,84.4,69.1,29.95,SE,135,0.0,0.0,60,0.00,,,-99.99,open2300 version1.11,2013-06-24 22:55:00,
2013-06-24 19:00:00,84.4,69.1,29.95,SE,135,0.0,0.0,60,0.00,,,-99.99,open2300 version1.11,2013-06-24 23:00:00,
2013-06-24 19:10:00,84.0,68.7,29.95,SE,135,0.0,0.0,60,0.00,,,-99.99,open2300 version1.11,2013-06-24 23:10:00,
2013-06-24 19:15:00,83.8,69.0,29.95,SE,135,0.0,0.0,61,0.00,,,-99.99,open2300 version1.11,2013-06-24 23:15:00,
2013-06-24 19:20:00,83.3,68.9,29.95,SE,135,0.0,0.0,62,0.00,,,-99.99,open2300 version1.11,2013-06-24 23:20:00,
2013-06-24 19:26:00,82.9,68.5,29.95,SE,135,0.0,0.0,62,0.00,,,-99.99,open2300 version1.11,2013-06-24 23:26:00,
2013-06-24 19:35:00,82.2,69.6,29.95,SE,135,0.0,0.0,66,0.00,,,-99.99,open2300 version1.11,2013-06-24 23:35:00,
2013-06-24 19:40:00,81.3,69.3,29.95,SE,135,0.0,0.0,67,0.00,,,-99.99,open2300 version1.11,2013-06-24 23:40:00,
2013-06-24 19:45:00,81.0,69.4,29.95,SE,135,0.0,0.0,68,0.00,,,-99.99,open2300 version1.11,2013-06-24 23:45:00,
2013-06-24 19:56:00,80.2,68.7,29.96,West,270,0.0,0.0,68,0.00,,,-99.99,open2300 version1.11,2013-06-24 23:56:00,
2013-06-24 20:05:00,78.1,67.5,29.95,WNW,292,0.0,0.0,70,0.00,,,-99.99,open2300 version1.11,2013-06-25 00:05:00,
2013-06-24 20:10:00,77.2,67.5,29.95,WNW,292,0.0,0.0,72,0.00,,,-99.99,open2300 version1.11,2013-06-25 00:10:00,
2013-06-24 20:15:00,76.1,66.8,29.95,WNW,292,0.0,0.0,73,0.00,,,-99.99,open2300 version1.11,2013-06-25 00:15:00,
2013-06-24 20:20:00,75.4,66.1,29.95,WNW,292,0.0,0.0,73,0.00,,,-99.99,open2300 version1.11,2013-06-25 00:20:00,
2013-06-24 20:25:00,75.0,66.2,29.96,West,270,0.0,0.0,74,0.02,,,-99.99,open2300 version1.11,2013-06-25 00:25:00,
2013-06-24 20:31:00,74.7,66.2,29.97,West,270,0.0,0.0,75,0.20,,,-99.99,open2300 version1.11,2013-06-25 00:31:00,
2013-06-24 20:42:00,73.6,66.0,29.95,SSE,157,0.0,0.0,77,0.24,,,-99.99,open2300 version1.11,2013-06-25 00:42:00,
2013-06-24 20:50:00,73.2,66.4,29.95,SSE,157,0.0,0.0,79,0.24,,,-99.99,open2300 version1.11,2013-06-25 00:50:00,
2013-06-24 20:56:00,72.9,66.0,29.95,SSE,157,0.0,0.0,79,0.24,,,-99.99,open2300 version1.11,2013-06-25 00:56:00,
2013-06-24 21:05:00,72.3,66.2,29.94,SSE,157,0.0,0.0,81,0.39,,,-99.99,open2300 version1.11,2013-06-25 01:05:00,
2013-06-24 21:16:00,72.0,65.8,29.94,SSE,157,0.0,0.0,81,0.39,,,-99.99,open2300 version1.11,2013-06-25 01:16:00,
2013-06-24 21:25:00,71.8,65.6,29.93,SSE,157,0.0,0.0,81,0.26,,,-99.99,open2300 version1.11,2013-06-25 01:25:00,
2013-06-24 21:30:00,71.6,65.8,29.93,SSE,157,0.0,0.0,82,0.14,,,-99.99,open2300 version1.11,2013-06-25 01:30:00,
2013-06-24 21:40:00,71.4,66.0,29.93,SSE,157,0.0,0.0,83,0.14,,,-99.99,open2300 version1.11,2013-06-25 01:40:00,
2013-06-24 21:46:00,71.4,66.0,29.93,SSE,157,0.0,0.0,83,0.14,,,-99.99,open2300 version1.11,2013-06-25 01:46:00,
2013-06-24 21:55:00,71.4,66.0,29.94,SSE,157,0.0,0.0,83,0.12,,,-99.99,open2300 version1.11,2013-06-25 01:55:00,
2013-06-24 22:05:00,71.2,66.1,29.94,WNW,292,0.0,0.0,84,0.00,,,-99.99,open2300 version1.11,2013-06-25 02:05:00,
2013-06-24 22:10:00,71.2,66.1,29.95,WNW,292,0.0,0.0,84,0.00,,,-99.99,open2300 version1.11,2013-06-25 02:10:00,
2013-06-24 22:15:00,71.2,66.1,29.95,WNW,292,0.0,0.0,84,0.00,,,-99.99,open2300 version1.11,2013-06-25 02:15:00,
2013-06-24 22:25:00,71.1,66.3,29.95,WNW,292,0.0,0.0,85,0.00,,,-99.99,open2300 version1.11,2013-06-25 02:25:00,
2013-06-24 22:30:00,70.9,66.1,29.95,WNW,292,0.0,0.0,85,0.00,,,-99.99,open2300 version1.11,2013-06-25 02:30:00,
2013-06-24 22:35:00,70.9,66.1,29.95,WNW,292,0.0,0.0,85,0.00,,,-99.99,open2300 version1.11,2013-06-25 02:35:00,
2013-06-24 22:40:00,70.9,66.1,29.95,WNW,292,0.0,0.0,85,0.00,,,-99.99,open2300 version1.11,2013-06-25 02:40:00,
2013-06-24 22:45:00,70.7,65.9,29.95,WNW,292,0.0,0.0,85,0.00,,,-99.99,open2300 version1.11,2013-06-25 02:45:00,
2013-06-24 22:50:00,70.7,65.9,29.95,WNW,292,0.0,0.0,85,0.00,,,-99.99,open2300 version1.11,2013-06-25 02:50:00,
2013-06-24 22:55:00,70.5,65.8,29.95,WNW,292,0.0,0.0,85,0.00,,,-99.99,open2300 version1.11,2013-06-25 02:55:00,
2013-06-24 23:00:00,70.3,65.6,29.95,WNW,292,0.0,0.0,85,0.00,,,-99.99,open2300 version1.11,2013-06-25 03:00:00,
2013-06-24 23:10:00,70.2,65.4,29.94,WNW,292,0.0,0.0,85,0.00,,,-99.99,open2300 version1.11,2013-06-25 03:10:00,
2013-06-24 23:17:00,70.2,65.4,29.94,WNW,292,0.0,0.0,85,0.00,,,-99.99,open2300 version1.11,2013-06-25 03:17:00,
2013-06-24 23:25:00,70.0,65.5,29.93,WNW,292,0.0,0.0,86,0.00,,,-99.99,open2300 version1.11,2013-06-25 03:25:00,
2013-06-24 23:30:00,69.8,65.4,29.94,WNW,292,0.0,0.0,86,0.00,,,-99.99,open2300 version1.11,2013-06-25 03:30:00,
2013-06-24 23:37:00,69.6,65.2,29.94,WNW,292,0.0,0.0,86,0.00,,,-99.99,open2300 version1.11,2013-06-25 03:37:00,
2013-06-24 23:45:00,69.6,65.2,29.93,WNW,292,0.0,0.0,86,0.00,,,-99.99,open2300 version1.11,2013-06-25 03:45:00,
2013-06-24 23:51:00,69.6,65.2,29.93,WNW,292,0.0,0.0,86,0.00,,,-99.99,open2300 version1.11,2013-06-25 03:51:00,
2013-06-24 23:57:00,69.4,65.0,29.93,WNW,292,0.0,0.0,86,0.00,,,-99.99,open2300 version1.11,2013-06-25 03:57:00,